AG4OX Weather Reports


Display with metric or nautical units.
time (UTC)temp
F
wind
direction
speed
MPH
gust
MPH
rain 1hr
in
rain 24hr
in
rain mn
in
humidity
%
barometer
mb
20260502123006 73 221 3.0 6.0 0.00 0.00 0.00 83 1009.4
20260502122006 73 219 2.0 6.0 0.00 0.00 0.00 83 1009.4
20260502121006 72 235 3.0 5.0 0.00 0.00 0.00 81 1009.3
20260502115006 70 196 2.0 3.0 0.00 0.00 0.00 72 1009.3
20260502114006 70 182 2.0 6.0 0.00 0.00 0.00 69 1009.2
20260502113005 69 172 1.0 3.0 0.00 0.00 0.00 68 1009.2
20260502112006 69 182 1.0 2.0 0.00 0.00 0.00 69 1009.1
20260502111006 68 220 0.0 2.0 0.00 0.00 0.00 71 1008.9
20260502110009 68 231 0.0 1.0 0.00 0.00 0.00 73 1009.0
20260502105005 68 236 0.0 1.0 0.00 0.00 0.00 72 1009.1
20260502102006 67 213 0.0 2.0 0.00 0.00 0.00 77 1008.8
20260502101006 68 201 0.0 1.0 0.00 0.00 0.00 79 1008.7
20260502091005 69 230 0.0 2.0 0.00 0.00 0.00 84 1009.0
20260502071006 72 182 0.0 2.0 0.00 0.00 0.00 84 1009.0
20260502070005 72 192 1.0 3.0 0.00 0.00 0.00 83 1009.0
20260502065006 72 238 0.0 2.0 0.00 0.00 0.00 83 1009.0
20260502064005 73 213 1.0 3.0 0.00 0.00 0.00 83 1008.9
20260502062005 73 249 1.0 2.0 0.00 0.00 0.00 82 1009.1
20260502061005 73 259 1.0 3.0 0.00 0.00 0.00 82 1009.2
20260502060005 73 245 1.0 2.0 0.00 0.00 0.00 82 1009.2
20260502054006 74 221 1.0 2.0 0.00 0.00 0.00 81 1009.3
20260502053005 74 150 1.0 2.0 0.00 0.00 0.00 80 1009.4
20260502052005 75 169 0.0 3.0 0.00 0.00 0.00 79 1009.5
20260502051006 75 219 1.0 3.0 0.00 0.00 0.00 79 1009.5
20260502045006 75 153 2.0 5.0 0.00 0.00 0.00 77 1009.6
20260502044006 75 228 2.0 3.0 0.00 0.00 0.00 77 1009.5
20260502043005 75 160 1.0 3.0 0.00 0.00 0.00 78 1009.6
20260502042006 75 224 3.0 5.0 0.00 0.00 0.00 79 1009.6
20260502041006 74 166 2.0 6.0 0.00 0.00 0.00 79 1009.6
20260502040006 75 103 2.0 5.0 0.00 0.00 0.00 80 1009.6
20260502035006 75 161 2.0 5.0 0.00 0.00 0.00 80 1009.6
20260502034006 75 172 1.0 2.0 0.00 0.00 0.00 81 1009.6
20260502033005 75 158 1.0 3.0 0.00 0.00 0.00 80 1009.7
20260502032005 75 131 1.0 2.0 0.00 0.00 0.00 80 1009.7
20260502031005 76 147 1.0 3.0 0.00 0.00 0.00 81 1009.6
20260502025005 75 106 1.0 3.0 0.00 0.00 0.00 83 1009.7
20260502024007 74 154 1.0 3.0 0.00 0.00 0.00 83 1009.7
20260502023007 74 107 0.0 1.0 0.00 0.00 0.00 84 1009.7
20260502021006 74 107 0.0 1.0 0.00 0.00 0.00 84 1009.5
20260502020005 74 107 0.0 3.0 0.00 0.00 0.00 84 1009.5
20260502015006 74 80 0.0 2.0 0.00 0.00 0.00 84 1009.5
20260502013006 75 80 0.0 0.0 0.00 0.00 0.00 83 1008.8
20260502012005 76 80 0.0 1.0 0.00 0.00 0.00 83 1008.8
20260502011005 76 80 0.0 1.0 0.00 0.00 0.00 82 1008.7
20260502010005 77 80 0.0 1.0 0.00 0.00 0.00 82 1008.7
20260502005005 77 80 0.0 1.0 0.00 0.00 0.00 80 1008.5
20260502004006 78 80 0.0 1.0 0.00 0.00 0.00 80 1008.2
20260502003006 78 80 1.0 2.0 0.00 0.00 0.00 80 1008.1
20260502002005 79 80 1.0 3.0 0.00 0.00 0.00 77 1007.9
20260502001006 80 86 1.0 2.0 0.00 0.00 0.00 76 1007.7
20260502000005 80 101 1.0 1.0 0.00 0.00 0.00 75 1007.6
20260501235006 81 102 1.0 3.0 0.00 0.00 0.00 74 1007.5
20260501234006 82 101 1.0 2.0 0.00 0.00 0.00 71 1007.4
20260501233005 83 101 1.0 3.0 0.00 0.00 0.00 69 1007.4
20260501232007 83 100 2.0 3.0 0.00 0.00 0.00 68 1007.4
20260501231006 84 108 3.0 6.0 0.00 0.00 0.00 65 1007.4
20260501230005 85 111 3.0 6.0 0.00 0.00 0.00 65 1007.1
20260501225006 85 100 2.0 9.0 0.00 0.00 0.00 64 1007.2
20260501224006 85 93 5.0 12.0 0.00 0.00 0.00 63 1007.1
20260501222007 84 89 3.0 7.0 0.00 0.00 0.00 67 1007.2
20260501221006 85 84 3.0 7.0 0.00 0.00 0.00 66 1007.3
20260501220005 85 87 5.0 9.0 0.00 0.00 0.00 66 1007.0
20260501215005 85 80 3.0 9.0 0.00 0.00 0.00 65 1007.0
20260501214006 86 89 4.0 12.0 0.00 0.00 0.00 63 1007.1
20260501211006 86 93 7.0 13.0 0.00 0.00 0.00 63 1007.2
20260501205006 86 62 6.0 13.0 0.00 0.00 0.00 65 1007.3
20260501204006 86 77 7.0 14.0 0.00 0.00 0.00 64 1007.4
20260501203005 88 85 7.0 12.0 0.00 0.00 0.00 62 1007.5
20260501202005 89 88 5.0 16.0 0.00 0.00 0.00 56 1007.7
20260501201005 89 61 2.0 10.0 0.00 0.00 0.00 57 1007.9
20260501195005 91 358 2.0 7.0 0.00 0.00 0.00 53 1008.4
20260501194007 91 128 3.0 7.0 0.00 0.00 0.00 46 1008.4
20260501193006 91 209 1.0 7.0 0.00 0.00 0.00 47 1008.6
20260501192005 90 308 1.0 8.0 0.00 0.00 0.00 47 1008.7
20260501191005 90 298 5.0 9.0 0.00 0.00 0.00 47 1008.8
20260501190005 90 260 3.0 9.0 0.00 0.00 0.00 47 1008.9
20260501185007 90 257 3.0 10.0 0.00 0.00 0.00 51 1009.0
20260501184005 89 304 2.0 6.0 0.00 0.00 0.00 51 1009.3
20260501183006 90 228 1.0 5.0 0.00 0.00 0.00 50 1009.3
20260501182005 88 313 3.0 7.0 0.00 0.00 0.00 50 1009.3
20260501181006 88 221 3.0 12.0 0.00 0.00 0.00 52 1009.5
20260501180005 88 240 2.0 6.0 0.00 0.00 0.00 54 1009.6
20260501175005 88 110 3.0 7.0 0.00 0.00 0.00 54 1009.7
20260501174006 88 267 2.0 7.0 0.00 0.00 0.00 55 1009.7
20260501173006 87 246 2.0 9.0 0.00 0.00 0.00 54 1009.8
20260501172005 87 256 3.0 7.0 0.00 0.00 0.00 58 1009.9
20260501171007 86 215 4.0 10.0 0.00 0.00 0.00 55 1010.1
20260501170005 87 228 4.0 9.0 0.00 0.00 0.00 55 1010.0
20260501165006 87 85 2.0 6.0 0.00 0.00 0.00 51 1010.1
20260501164005 86 164 3.0 9.0 0.00 0.00 0.00 54 1010.2
20260501163005 85 223 3.0 9.0 0.00 0.00 0.00 54 1010.4
20260501162006 85 229 5.0 12.0 0.00 0.00 0.00 56 1010.6
20260501160005 83 222 3.0 7.0 0.00 0.00 0.00 63 1010.4
20260501154005 84 245 2.0 6.0 0.00 0.00 0.00 65 1010.6
20260501153006 84 341 2.0 7.0 0.00 0.00 0.00 61 1010.5
20260501152005 83 123 1.0 6.0 0.00 0.00 0.00 65 1010.4
20260501144007 80 296 5.0 7.0 0.00 0.00 0.00 71 1011.0